Terug naar catalogus

STARLINK-34507

ActiefCommunicatieVLEO
NORAD 64437·PAYLOAD·🇺🇸 United States

Gelanceerd Jun 17, 2025 vanaf Vandenberg Space Force Base

Loading…

Volgende Passages (komende 24 uur)

TLE

VersSource: CelesTrak SupGP

Epoch: Sep 15, 2026, 03:12 UTC

1 64437C 25129AB  26258.13381944  .00037211  00000+0  12941-2 0  2589
2 64437  69.9998 315.0241 0003364 269.2288 271.2394 15.29568869    13

Volg STARLINK-34507 in realtime met AllMySat

Download on the App Store